GW3247 Weather Reports


time (UTC)temp
F
wind
direction
speed
knots
gust
knots
rain 1hr
in
rain 24hr
in
rain mn
in
humidity
%
barometer
mb
20260506034530 47 68 6.1 8.7 0.00 0.00 0.00 58 1011.2
20260506033010 47 71 5.2 7.8 0.00 0.00 0.00 58 1011.3
20260506031509 47 56 6.1 9.6 0.00 0.00 0.00 60 1011.3
20260506030006 46 78 5.2 9.6 0.00 0.00 0.00 60 1011.5
20260506024505 47 68 7.8 10.4 0.00 0.00 0.00 57 1011.5
20260506023003 47 71 7.8 11.3 0.00 0.00 0.00 56 1011.7
20260506021502 47 87 7.0 10.4 0.00 0.00 0.00 56 1011.9
20260506020100 47 83 5.2 11.3 0.00 0.00 0.00 59 1011.9
20260506014558 47 77 7.8 10.4 0.00 0.00 0.00 61 1011.9
20260506013055 47 72 4.3 9.6 0.00 0.00 0.00 61 1011.9
20260506011612 48 80 7.0 10.4 0.00 0.00 0.00 57 1011.8
20260506010059 48 86 6.1 13.0 0.00 0.00 0.00 58 1011.8
20260506004603 49 68 8.7 13.9 0.00 0.00 0.00 52 1011.6
20260506003101 49 67 10.4 13.9 0.00 0.00 0.00 52 1011.5
20260506001542 49 49 9.6 13.9 0.00 0.00 0.00 57 1011.6
20260506000040 49 69 11.3 14.8 0.00 0.00 0.00 54 1011.5
20260505234558 50 72 12.2 15.6 0.00 0.00 0.00 57 1011.5
20260505233039 50 63 11.3 15.6 0.00 0.00 0.00 57 1011.7
20260505231536 50 60 10.4 15.6 0.00 0.00 0.00 62 1011.4
20260505230040 50 56 12.2 15.6 0.00 0.00 0.00 60 1011.5
20260505224530 50 63 9.6 13.0 0.00 0.00 0.00 66 1011.6
20260505223027 50 60 10.4 13.9 0.00 0.00 0.00 66 1011.8
20260505221524 50 53 9.6 13.9 0.00 0.00 0.00 65 1011.8
20260505220029 50 56 10.4 13.0 0.00 0.00 0.00 66 1011.9
20260505214523 50 49 7.8 11.3 0.00 0.00 0.00 68 1012.0
20260505213019 50 53 7.8 10.4 0.00 0.00 0.00 66 1011.9
20260505211518 50 63 7.8 12.2 0.00 0.00 0.00 67 1012.0
20260505210017 50 57 8.7 11.3 0.00 0.00 0.00 67 1012.1
20260505204515 50 67 8.7 12.2 0.00 0.00 0.00 67 1011.9
20260505203015 50 43 8.7 11.3 0.00 0.00 0.00 68 1012.0
20260505201518 50 46 7.8 11.3 0.00 0.00 0.00 69 1012.0
20260505200013 50 66 8.7 12.2 0.00 0.00 0.00 69 1012.0
20260505194528 50 34 7.8 10.4 0.00 0.00 0.00 68 1012.0
20260505193031 50 51 7.0 11.3 0.00 0.00 0.00 67 1012.0
20260505191511 50 44 6.1 8.7 0.00 0.00 0.00 69 1011.9
20260505190012 50 35 7.0 9.6 0.00 0.00 0.00 68 1012.0
20260505184510 50 55 7.8 11.3 0.00 0.00 0.00 67 1011.9
20260505183013 50 50 7.0 11.3 0.00 0.00 0.00 66 1011.7
20260505181508 50 56 7.0 9.6 0.00 0.00 0.00 63 1011.6
20260505180007 50 52 7.0 9.6 0.00 0.00 0.00 65 1011.6
20260505174510 50 37 7.8 11.3 0.00 0.00 0.00 63 1011.6
20260505173006 50 30 9.6 12.2 0.00 0.00 0.00 64 1011.7
20260505171505 50 35 9.6 11.3 0.00 0.00 0.00 65 1011.8
20260505170011 50 31 8.7 13.9 0.00 0.00 0.00 64 1011.7
20260505164505 49 45 11.3 13.9 0.00 0.00 0.00 63 1011.8
20260505163004 49 63 11.3 13.0 0.00 0.00 0.00 65 1011.9
20260505161503 49 36 10.4 13.0 0.00 0.00 0.00 65 1011.9
20260505153002 49 30 11.3 14.8 0.00 0.00 0.00 66 1012.2
20260505151600 49 24 12.2 14.8 0.00 0.00 0.00 67 1012.2
20260505151528 49 37 12.2 14.8 0.00 0.00 0.00 67 1012.2
20260505124553 49 2 7.0 10.4 0.00 0.00 0.00 74 1012.2
20260505123109 49 26 7.8 11.3 0.00 0.00 0.00 72 1012.3
20260505121550 49 41 9.6 13.9 0.00 0.00 0.00 74 1012.4
20260505120051 49 359 8.7 13.0 0.00 0.00 0.00 75 1012.2
20260505114610 49 337 8.7 12.2 0.00 0.00 0.00 74 1012.3
20260505113048 49 28 8.7 11.3 0.00 0.00 0.00 74 1012.3
20260505111602 48 354 7.8 11.3 0.00 0.00 0.00 73 1012.3
20260505101546 48 355 7.8 11.3 0.00 0.00 0.00 76 1012.3
20260505100045 48 32 7.8 12.2 0.00 0.00 0.00 77 1012.3
20260505094546 48 24 9.6 12.2 0.00 0.00 0.00 77 1012.2
20260505093041 48 2 7.8 13.9 0.00 0.00 0.00 78 1012.1
20260505091539 48 357 8.7 13.0 0.00 0.00 0.00 78 1012.1
20260505090048 48 4 8.7 12.2 0.00 0.00 0.00 78 1012.0
20260505084539 49 49 9.6 13.0 0.00 0.00 0.00 78 1012.0
20260505083046 49 35 7.0 10.4 0.00 0.00 0.00 77 1011.8
20260505081545 49 16 7.0 10.4 0.00 0.00 0.00 78 1011.9
20260505080041 48 359 7.0 12.2 0.00 0.00 0.00 79 1011.7
20260505074538 48 4 8.7 13.0 0.00 0.00 0.00 79 1011.7
20260505073033 48 3 10.4 13.9 0.00 0.00 0.00 79 1011.7
20260505071537 49 335 9.6 14.8 0.00 0.00 0.00 79 1011.6
20260505070033 48 353 8.7 12.2 0.00 0.00 0.00 75 1011.6
20260505064540 48 25 7.8 12.2 0.00 0.00 0.00 77 1011.5
20260505063024 48 1 10.4 13.0 0.00 0.00 0.00 78 1011.4
20260505061534 48 356 9.6 13.0 0.00 0.00 0.00 80 1011.4
20260505060027 48 352 10.4 13.0 0.00 0.00 0.00 80 1011.6
20260505054521 48 19 11.3 14.8 0.00 0.00 0.00 79 1011.4
20260505053018 48 332 10.4 13.9 0.00 0.00 0.00 80 1011.4
20260505051515 48 358 8.7 13.0 0.00 0.00 0.00 79 1011.4
20260505041513 48 314 5.2 11.3 0.00 0.00 0.00 82 1011.2
20260505040011 48 307 6.1 9.6 0.00 0.00 0.00 81 1011.2